Location: Grossmotten
(48.5500°N, 15.3833°E)
Time: 14:25:35
(UTC+00:00)

SJ 16-02 - Pass Details

Date: 15 November 2019
Orbit: 607 x 616 km, 75.0° (Epoch: 07 December)

Event Time Altitude Azimuth Distance (km) Brightness Sun altitude
Rises 04:40:53 0° 218° (SW) 2,860 4.5 -14.0°
Reaches altitude 10° 04:43:12 10° 225° (SW) 1,959 3.6 -13.7°
Maximum altitude 04:47:23 43° 297° (WNW) 856 1.6 -13.0°
Drops below altitude 10° 04:51:35 10° 10° (N) 1,969 3.9 -12.3°
Sets 04:53:55 0° 17° (NNE) 2,877 4.8 -11.9°
